Flag for Switzerland Weather past 2 weeks in Bern, Bern, Switzerland

Now
46 °F

Passing clouds.


Feels Like: 46 °F
Forecast: 40 / 52 °F
Wind: 2 mph from North

Location: Bern / Belp

Current Time: Apr 27, 2015 at 4:34:35 AM

Latest Report: Apr 27, 2015 at 4:20 AM


Visibility: N/A

Pressure: 29.62 "Hg

Humidity: 100%

Dew point: 46 °F

Location of BernLocation

Historic Weather in Bern — Graph

°F

Bern temperature yesterday

Maximum temperature yesterday: 66 °F (at 3:20 PM)
Minimum temperature yesterday: 48 °F (at 4:20 AM)
Average temperature yesterday: 56 °F

Past Weeks' High & Low Weather Summary

 TemperatureHumidityPressure
High75 °F (Apr 15, 6:50 PM)100% (Apr 12, 6:50 AM)30.45 "Hg (Apr 12, 6:50 AM)
Low28 °F (Apr 19, 6:50 AM)17% (Apr 14, 6:20 PM)29.65 "Hg (Apr 27, 1:20 AM)
Average52 °F70%30.11 "Hg
* Reported Apr 12 3:20 AM — Apr 27 3:20 AM, Bern, Weather by CustomWeather, © 2015

Note: Actual official high and low records may vary slightly from our data, if they occured in-between our weather recording intervals... More about our weather records

Advertising

Bern weather history for previous 24 hours

 ConditionsComfort  
Time TempWeatherWind HumidityBarometerVisibility
3:20 AM
Mon, Apr 27
46 °FPassing clouds.2 mph100%29.65 "Hg6 mi
2:50 AM46 °FPassing clouds.2 mph100%29.65 "HgN/A
2:20 AM46 °FPassing clouds.2 mph100%29.65 "HgN/A
1:50 AM46 °FMostly cloudy.1 mph100%29.65 "HgN/A
1:20 AM48 °FPassing clouds.3 mph100%29.65 "HgN/A
12:50 AM48 °FPassing clouds.3 mph94%29.68 "HgN/A
12:20 AM46 °FCool.3 mph100%29.68 "HgN/A
11:50 PM
Sun, Apr 26
48 °FPassing clouds.2 mph100%29.68 "Hg5 mi
11:20 PM50 °FPassing clouds.2 mph94%29.68 "HgN/A
10:50 PM52 °FPassing clouds.3 mph94%29.68 "HgN/A
10:20 PM54 °FPassing clouds.2 mph94%29.68 "HgN/A
9:50 PM54 °FPartly cloudy.5 mph94%29.68 "HgN/A
9:20 PM54 °FPartly sunny.5 mph94%29.68 "HgN/A
8:50 PM55 °FPartly sunny.7 mph88%29.68 "HgN/A
8:20 PM57 °FPartly sunny.7 mph82%29.68 "HgN/A
7:50 PM57 °FPartly sunny.8 mph88%29.68 "HgN/A
7:20 PM59 °FThundershowers. Partly sunny.6 mph88%29.68 "HgN/A
6:50 PM59 °FThundershowers. Broken clouds.6 mph82%29.68 "HgN/A
6:20 PM57 °FThunderstorms. Partly sunny.3 mph88%29.68 "HgN/A
5:50 PM63 °FThundershowers. Partly sunny.12 mph68%29.68 "HgN/A
5:20 PM64 °FScattered clouds.9 mph68%29.68 "HgN/A
4:50 PM66 °FScattered clouds.7 mph64%29.71 "HgN/A
4:20 PM66 °FPassing clouds.6 mph64%29.71 "HgN/A
3:50 PM64 °FPassing clouds.6 mph64%29.74 "HgN/A
3:20 PM66 °FScattered clouds.5 mph60%29.74 "HgN/A
2:50 PM64 °FScattered clouds.7 mph68%29.77 "HgN/A
2:20 PM64 °FBroken clouds.6 mph60%29.77 "HgN/A
1:50 PM64 °FBroken clouds.6 mph60%29.77 "HgN/A
1:20 PM64 °FBroken clouds.3 mph60%29.80 "HgN/A
12:50 PM63 °FBroken clouds.3 mph59%29.80 "HgN/A
12:20 PM64 °FPassing clouds.5 mph60%29.83 "HgN/A
11:50 AM63 °FScattered clouds.2 mph64%29.83 "HgN/A
11:20 AM59 °FScattered clouds.1 mph68%29.83 "HgN/A
10:50 AM59 °FScattered clouds.No wind72%29.86 "HgN/A
10:20 AM57 °FScattered clouds.No wind77%29.86 "HgN/A
9:50 AM55 °FScattered clouds.1 mph77%29.86 "HgN/A
9:20 AM54 °FScattered clouds.1 mph88%29.86 "HgN/A
8:50 AM54 °FScattered clouds.2 mph88%29.86 "HgN/A
8:20 AM52 °FScattered clouds.1 mph94%29.86 "HgN/A
7:50 AM50 °FScattered clouds.2 mph94%29.86 "HgN/A
7:20 AM48 °FPassing clouds.No wind94%29.86 "HgN/A
6:50 AM48 °FSprinkles. Passing clouds.No wind100%29.86 "HgN/A
6:20 AM48 °FPassing clouds.2 mph100%29.89 "HgN/A
5:50 AM48 °FSprinkles. Partly cloudy.5 mph100%29.89 "HgN/A
5:20 AM48 °FPartly cloudy.3 mph94%29.89 "HgN/A
4:50 AM48 °FPartly cloudy.3 mph94%29.89 "HgN/A
4:20 AM48 °FPartly cloudy.2 mph94%29.92 "HgN/A
Weather by CustomWeather, © 2015

See weather overviewHow to use our weather pages